Home   Weather   Lahti   Past weeks
Flag for Finland

Past Weather in Lahti, Finland — Yesterday and Last 2 Weeks

Now
41 °F

Clear.


Feels Like: 41 °F
Forecast: 60 / 40 °F
Wind: 1 mph from North

Location: Utti

Current Time: Apr 19, 2019 at 1:36:02 am

Latest Report: Apr 19, 2019 at 12:50 am


Visibility: 10 mi

Pressure: 30.51 "Hg

Humidity: 61%

Dew Point: 28 °F

Location of LahtiLocation

Past Weather in Lahti — Graph

°F

Lahti Temperature Yesterday

Maximum temperature yesterday: 61 °F (at 4:50 pm)
Minimum temperature yesterday: 32 °F (at 5:20 am)
Average temperature yesterday: 48 °F

High & Low Weather Summary for the Past Weeks

 TemperatureHumidityPressure
High61 °F (Apr 18, 4:50 pm)100% (Apr 9, 1:50 am)30.60 "Hg (Apr 9, 1:50 am)
Low19 °F (Apr 12, 5:50 am)17% (Apr 18, 5:50 pm)29.59 "Hg (Apr 9, 12:50 am)
Average38 °F61%30.23 "Hg
* Reported Apr 4 12:20 am — Apr 19 12:20 am, Lahti. Weather by CustomWeather, © 2019

Note: Actual official high and low records may vary slightly from our data, if they occured in-between our weather recording intervals... More about our weather records

Advertising

Lahti Weather History for the Previous 24 Hours

Scroll right to see more
 ConditionsComfort  
Time TempWeatherWind HumidityBarometerVisibility
12:20 am
Fri, Apr 19
41 °FClear.1 mph61%30.51 "Hg10 mi
11:50 pm
Thu, Apr 18
43 °FClear.1 mph57%30.51 "Hg10 mi
11:20 pm43 °FClear.2 mph57%30.51 "Hg10 mi
10:50 pm45 °FClear.1 mph53%30.51 "Hg10 mi
10:20 pm48 °FClear.1 mph50%30.51 "Hg10 mi
9:50 pm48 °FClear.2 mph50%30.51 "Hg10 mi
9:20 pm52 °FPassing clouds.3 mph44%30.51 "HgN/A
8:50 pm54 °FClear.2 mph35%30.51 "Hg10 mi
8:20 pm55 °FSunny.2 mph26%30.48 "Hg10 mi
7:50 pm59 °FSunny.2 mph23%30.48 "Hg10 mi
7:20 pm59 °FSunny.2 mph23%30.51 "Hg10 mi
6:50 pm61 °FPassing clouds.3 mph20%30.51 "HgN/A
6:20 pm61 °FPassing clouds.5 mph19%30.51 "HgN/A
5:50 pm61 °FPassing clouds.3 mph17%30.51 "HgN/A
5:20 pm59 °FPassing clouds.6 mph18%30.51 "HgN/A
4:50 pm61 °FPassing clouds.7 mph20%30.51 "HgN/A
2:50 pm59 °FPassing clouds.7 mph20%30.51 "HgN/A
2:20 pm57 °FPassing clouds.6 mph21%30.54 "HgN/A
1:50 pm59 °FPassing clouds.6 mph25%30.54 "HgN/A
1:20 pm57 °FPassing clouds.7 mph25%30.54 "HgN/A
12:50 pm57 °FPassing clouds.7 mph29%30.54 "HgN/A
12:20 pm55 °FPassing clouds.6 mph31%30.54 "HgN/A
11:50 am55 °FPassing clouds.7 mph36%30.54 "HgN/A
11:20 am54 °FPassing clouds.5 mph38%30.54 "HgN/A
10:50 am52 °FPassing clouds.5 mph41%30.54 "HgN/A
10:20 am52 °FPassing clouds.5 mph38%30.54 "HgN/A
9:50 am50 °FSunny.2 mph40%30.51 "Hg10 mi
9:20 am48 °FPassing clouds.3 mph46%30.51 "HgN/A
8:50 am46 °FSunny.2 mph53%30.51 "Hg10 mi
8:20 am43 °FSunny.2 mph61%30.51 "Hg10 mi
7:50 am39 °FSunny.3 mph70%30.51 "Hg10 mi
7:20 am36 °FSunny.5 mph81%30.51 "Hg10 mi
6:50 am32 °FSunny.3 mph87%30.51 "Hg10 mi
6:20 am32 °FSunny.5 mph87%30.51 "Hg10 mi
5:50 am34 °FSunny.3 mph81%30.51 "Hg10 mi
5:20 am32 °FClear.3 mph87%30.51 "Hg10 mi
4:50 am34 °FClear.3 mph81%30.51 "Hg10 mi
4:20 am34 °FClear.3 mph81%30.51 "Hg10 mi
3:50 am34 °FClear.3 mph81%30.48 "Hg10 mi
3:20 am34 °FClear.3 mph81%30.48 "Hg10 mi
2:20 am37 °FPassing clouds.3 mph75%30.51 "HgN/A
1:50 am41 °FClear.2 mph66%30.51 "Hg10 mi
1:20 am41 °FClear.2 mph66%30.51 "Hg10 mi
Weather by CustomWeather, © 2019

See weather overview